Theta_e
320 323 325 326 326 325 327 328 329 331 330 330 331 333 331 329 328 329 329 328 326 326 326 326 326 326 326 326 327 330 329 329 326 328 329 329 330 328 328 327 326 325 325 323
321 325 323 325 326 325 326 328 329 329 329 328 329 330 330 330 330 329 327 327 327 327 326 326 326 327 325 325 327 329 330 329 324 330 330 329 330 327 328 328 328 324 326 324
320 322 323 325 325 325 328 328 329 329 328 329 329 331 331 330 329 328 327 326 325 328 327 326 327 328 326 326 325 329 329 328 323 327 329 330 330 328 328 328 329 327 324 324
320 321 324 325 325 327 329 328 328 328 328 329 329 333 332 329 330 329 326 326 326 328 327 326 327 328 327 325 325 328 328 328 330 325 329 329 329 329 328 326 327 327 325 325
319 322 323 327 326 327 328 328 328 328 329 328 328 330 328 330 330 328 326 325 327 328 328 327 328 328 327 325 326 327 328 328 330 330 326 331 330 329 329 327 327 327 324 326
319 321 324 326 327 327 327 328 328 327 328 332 329 329 329 329 327 326 326 326 328 329 328 328 328 328 326 324 325 327 329 327 330 331 330 331 330 329 328 327 326 327 327 325
321 320 323 326 326 327 327 329 330 332 330 332 328 329 331 330 327 326 325 327 329 329 329 328 328 328 325 324 324 327 329 327 327 329 330 331 329 327 326 325 326 326 327 326
323 322 322 325 327 327 328 330 328 334 331 330 331 332 328 327 326 325 325 327 330 329 328 328 328 327 325 324 322 325 327 327 326 327 330 330 330 328 325 325 325 326 327 326
324 323 324 324 326 328 328 328 327 328 328 329 329 330 330 329 326 326 326 331 331 329 328 328 328 326 325 325 323 324 326 326 326 327 330 329 330 329 328 327 324 325 327 325
326 327 326 324 327 328 329 327 327 327 331 335 329 330 329 328 327 329 332 332 332 329 328 328 328 326 326 324 324 325 327 326 325 326 328 328 330 330 329 329 324 323 327 325
327 331 328 327 329 328 328 328 327 329 328 331 332 330 330 331 332 335 333 333 332 329 327 328 327 327 325 323 325 325 326 324 325 325 327 328 330 331 330 328 326 323 326 326
327 329 331 329 328 328 328 328 329 330 333 329 329 331 332 332 330 332 333 333 330 328 327 327 327 327 323 323 325 325 326 324 323 324 325 327 330 331 331 327 327 325 325 325
327 329 334 332 330 329 329 329 329 332 334 334 329 330 331 330 330 330 333 331 329 328 327 327 327 327 322 323 324 324 326 324 321 323 325 326 329 330 329 327 327 327 326 327
329 330 331 334 332 331 331 329 327 329 333 329 330 329 331 330 329 330 333 331 329 328 327 327 327 327 322 323 323 324 325 324 320 320 324 325 328 328 328 329 330 330 327 325
331 329 332 329 329 328 328 327 327 328 330 330 330 329 329 331 331 330 332 331 329 328 327 327 327 326 322 323 323 323 324 323 319 319 322 324 325 330 329 327 328 331 329 325
333 330 331 328 328 329 328 328 327 327 327 328 329 330 331 330 329 329 332 332 330 329 328 328 328 327 322 323 323 323 324 323 319 319 320 324 324 329 328 328 324 324 326 326
334 331 331 333 328 328 330 329 328 328 328 329 329 330 330 329 329 329 333 332 332 330 329 328 328 328 323 323 323 323 324 323 319 319 319 323 322 324 329 329 327 324 324 324
332 333 331 333 331 332 328 329 327 329 328 328 329 330 330 330 328 327 329 332 331 331 330 328 329 328 324 323 323 323 324 323 319 320 319 320 322 324 327 327 326 325 325 324
330 332 331 334 333 328 326 327 329 330 331 330 328 328 328 328 327 328 327 327 330 330 330 329 329 329 325 323 324 323 325 324 320 321 321 318 321 323 324 326 325 325 324 324
328 331 333 332 334 334 329 327 326 328 330 330 330 330 330 328 328 329 327 327 331 330 331 331 330 329 327 324 324 324 325 325 321 321 322 319 318 322 324 325 326 327 325 325
327 329 331 331 337 329 328 327 327 329 329 331 329 330 331 332 329 327 329 327 331 330 331 331 330 329 328 325 324 324 324 325 323 321 322 321 317 319 322 325 325 327 328 328
327 328 331 332 332 329 327 327 329 334 331 330 329 329 328 327 327 327 329 330 331 331 331 332 332 330 330 327 325 325 325 325 324 322 322 322 319 318 321 322 324 325 325 327
325 328 330 329 330 332 328 331 329 327 330 328 329 327 327 327 327 327 329 331 332 331 331 332 333 332 331 329 326 325 325 325 324 322 322 322 321 318 321 323 324 324 321 326
321 321 323 325 328 329 326 326 327 327 328 329 328 328 327 327 327 327 327 331 331 332 331 332 332 333 332 330 328 326 326 325 324 323 322 322 321 320 323 321 323 322 321 323
315 317 321 323 325 327 327 327 328 328 329 329 329 329 329 329 329 329 329 331 331 331 331 332 332 334 334 332 330 328 327 326 325 323 323 322 322 321 322 321 325 321 324 315
312 314 317 324 319 319 327 326 326 328 329 330 329 330 329 330 331 330 331 331 331 331 332 333 332 333 334 334 333 330 328 327 325 324 324 323 324 322 321 320 325 324 324 322
Wind_Speed
24 15 22 25 26 26 24 23 24 22 16 9 15 21 18 15 19 23 23 16 14 16 18 21 20 16 14 10 8 6 5 5 7 7 10 10 10 6 9 11 10 7 9 12
21 24 26 26 23 27 27 25 23 20 18 14 14 15 13 15 19 26 24 20 15 18 21 21 20 19 16 12 8 8 4 5 5 3 8 13 11 8 8 9 10 7 4 9
26 25 26 27 24 26 25 24 20 22 17 16 15 14 14 21 22 18 17 9 8 20 22 23 21 20 16 12 11 7 6 5 3 2 6 9 12 11 6 6 9 8 1 7
30 26 28 28 26 25 24 25 24 17 14 12 14 13 13 15 16 11 6 12 15 22 23 24 23 21 17 13 10 9 6 3 4 2 3 11 13 13 6 4 9 7 3 6
32 28 30 27 28 27 23 23 18 13 15 14 15 12 14 14 17 7 1 8 20 24 26 26 24 21 17 13 12 9 6 4 3 5 8 7 11 13 10 3 7 5 5 4
29 30 29 30 25 25 24 20 11 12 12 12 15 15 14 15 4 4 1 6 19 21 23 24 22 20 17 14 12 9 7 5 3 1 6 9 13 14 9 4 4 9 6 3
26 33 30 29 29 22 23 12 11 10 11 11 17 15 15 9 10 1 2 5 18 20 22 24 23 21 18 14 13 9 7 5 3 2 3 6 10 9 12 9 7 8 11 7
23 22 33 27 29 24 21 17 11 11 11 16 20 16 3 5 6 2 1 4 15 18 22 23 23 21 18 14 13 10 8 6 3 1 1 5 5 9 12 12 9 8 9 8
22 29 23 32 23 22 19 21 18 17 15 12 8 10 13 12 7 9 11 11 17 16 21 22 22 20 17 15 13 10 7 6 4 2 1 3 5 6 9 10 12 13 10 13
25 17 28 30 25 22 22 19 16 12 15 13 11 14 4 11 6 10 8 8 17 17 20 22 22 20 16 15 13 11 9 7 5 2 1 3 2 8 9 9 9 11 12 16
26 17 21 24 26 22 19 18 16 14 14 11 9 9 3 11 9 9 8 14 17 20 22 22 21 19 16 15 14 13 10 7 7 4 3 5 3 6 4 8 9 10 13 12
32 11 16 27 27 26 23 23 17 10 15 10 10 3 11 8 8 7 14 16 19 24 23 21 21 19 17 16 15 13 11 9 8 6 5 6 6 6 4 10 13 14 11 12
27 21 13 19 22 23 23 24 19 13 9 14 11 10 10 11 9 7 17 21 21 23 22 21 21 20 19 17 17 14 13 11 9 8 7 8 7 7 7 7 12 16 15 14
22 19 22 16 20 22 26 24 23 19 13 14 14 14 13 12 9 10 18 27 24 25 23 22 22 21 20 19 18 15 13 13 10 10 8 10 8 8 11 12 9 14 15 20
21 26 21 23 23 27 25 25 26 24 19 18 16 16 11 14 12 12 19 24 25 24 26 23 23 23 22 21 20 17 14 15 13 12 11 11 10 11 11 11 12 12 14 19
20 20 21 24 27 26 28 27 26 25 23 22 20 17 13 10 25 16 22 20 20 25 26 24 23 23 24 24 22 20 16 17 15 14 12 12 13 12 13 12 13 13 14 13
17 17 22 19 23 23 24 26 26 21 21 22 20 15 13 11 11 8 23 18 20 24 27 27 26 25 26 26 24 23 19 18 17 15 14 14 15 14 13 12 14 14 14 14
13 22 17 15 17 26 13 21 22 21 18 19 17 16 16 13 11 15 18 25 23 23 25 29 28 27 27 26 25 23 21 20 18 17 16 17 16 16 15 14 14 16 16 13
18 16 11 15 15 13 23 20 22 21 18 18 18 15 14 22 18 12 14 14 23 20 25 30 31 28 28 27 27 26 23 22 20 19 18 18 18 18 18 16 16 12 17 16
15 15 12 13 16 21 15 22 15 14 15 15 16 13 14 17 11 9 20 16 24 21 22 27 31 31 29 30 29 29 26 25 23 20 19 18 19 20 20 19 18 14 15 16
14 15 17 13 8 13 20 14 22 17 8 13 18 19 16 12 11 18 17 17 25 26 22 25 33 35 33 33 32 32 30 28 25 21 20 19 19 22 20 20 20 18 17 14
14 15 12 15 13 11 13 18 20 6 9 8 21 22 20 15 14 16 12 7 19 25 21 25 32 35 34 35 35 33 31 28 25 23 22 21 21 21 22 22 21 19 19 16
6 3 9 8 11 3 8 10 13 13 10 9 21 21 20 20 19 19 13 14 14 18 20 22 28 33 35 35 37 36 32 29 26 24 24 24 23 20 22 23 22 20 21 17
6 13 6 8 17 14 14 11 13 14 11 11 15 14 22 23 21 19 20 20 16 12 19 23 27 33 35 35 35 36 32 31 28 26 26 27 25 21 22 22 24 22 22 23
10 10 13 12 10 11 3 10 10 15 13 15 12 9 13 16 20 19 16 16 13 16 18 24 23 28 32 33 34 34 34 33 31 29 28 29 28 24 24 21 22 22 21 23
10 4 4 4 22 16 15 21 34 21 7 10 14 12 18 13 16 20 20 17 17 17 20 22 19 19 28 30 31 33 36 34 33 33 31 32 29 26 26 25 22 17 20 15
Wind_Direction
224 221 225 224 223 237 244 251 246 253 258 220 236 238 242 256 276 285 291 283 255 203 187 190 196 201 209 211 224 233 249 277 304 14 330 317 327 338 337 333 328 306 260 231
215 221 224 231 226 231 243 252 261 273 283 286 284 264 279 286 271 265 265 266 263 172 165 180 192 198 207 214 211 221 237 263 300 319 306 343 333 324 305 323 344 328 277 202
218 222 222 233 223 229 234 243 254 261 273 270 277 270 264 263 269 267 260 235 250 157 173 182 187 197 204 205 208 202 220 249 326 49 347 316 323 331 329 342 327 353 214 196
226 225 222 225 229 220 232 232 239 254 274 270 281 289 279 294 272 257 240 213 180 166 182 182 186 195 200 203 202 195 210 234 315 297 345 335 343 352 324 330 5 21 94 173
225 219 230 220 221 231 233 239 242 236 247 259 268 269 276 289 281 233 169 228 185 172 179 179 184 190 195 197 193 190 211 233 242 353 358 15 355 353 352 334 19 57 81 154
229 229 227 233 228 220 233 237 247 257 260 249 250 259 270 266 320 101 298 235 149 165 172 175 181 185 188 191 192 191 202 225 222 312 349 357 344 356 10 68 65 52 54 125
217 227 231 232 229 215 224 213 224 225 237 252 250 246 245 280 297 330 313 133 153 159 164 169 176 178 184 186 188 189 204 214 212 258 342 12 357 25 57 86 67 63 55 103
219 219 222 216 229 218 198 208 219 226 223 245 236 242 261 98 92 79 83 78 130 155 162 171 177 177 181 184 188 188 194 207 185 230 354 28 349 32 70 71 60 62 63 98
208 227 208 228 208 218 194 212 215 250 251 284 281 220 216 171 166 198 197 146 138 157 163 171 174 179 180 184 187 185 196 197 193 214 122 67 358 46 67 59 62 50 83 107
235 215 225 208 210 204 219 192 208 232 244 266 279 277 224 138 199 150 127 145 140 158 166 172 174 178 180 184 185 185 192 196 192 176 115 98 49 64 48 56 64 62 92 112
226 243 210 207 204 192 205 222 199 225 225 226 243 257 276 149 128 121 155 142 152 163 171 172 176 177 182 183 185 186 189 188 189 174 166 119 106 96 77 67 75 82 102 112
214 225 238 209 199 197 206 216 192 214 219 253 253 242 98 110 137 135 115 142 160 165 174 175 176 177 184 183 186 185 189 188 190 180 162 142 128 111 91 90 87 78 105 122
202 224 227 224 205 184 212 218 215 210 223 213 234 243 160 159 157 160 145 144 167 169 175 175 178 180 187 184 185 185 187 188 187 178 174 153 140 140 108 105 99 90 87 109
188 220 222 219 197 178 195 216 215 212 216 225 237 248 145 152 172 204 157 154 171 174 176 178 180 184 188 186 186 184 186 184 184 181 175 160 148 127 105 102 92 89 101 100
186 211 218 229 229 193 197 207 221 216 212 222 224 244 202 181 187 218 154 159 170 180 176 182 184 185 187 186 187 187 186 183 182 182 178 167 158 144 130 118 116 111 99 107
188 208 222 211 231 212 205 205 216 224 213 214 230 230 234 200 191 194 154 163 180 182 182 186 186 188 187 187 188 188 185 184 182 182 183 175 165 154 149 145 129 123 119 109
186 192 204 223 217 236 207 202 206 219 224 209 216 223 238 230 211 176 144 163 195 185 187 187 187 190 190 189 190 187 186 185 181 183 185 181 172 171 163 155 149 141 137 129
276 191 196 217 219 227 230 194 212 218 223 221 222 208 214 235 199 205 185 176 177 183 188 187 186 188 188 188 190 187 186 187 185 185 186 184 179 179 169 169 168 167 157 146
262 180 196 212 219 227 215 217 198 208 213 212 216 219 218 209 228 231 215 216 173 182 186 188 185 183 184 189 189 189 187 188 188 188 187 187 185 185 178 179 188 188 168 161
251 177 213 190 221 224 213 208 215 205 224 202 205 204 208 228 222 228 206 200 168 172 186 183 181 179 188 190 191 190 191 189 192 191 189 189 187 190 185 185 194 193 175 171
229 187 211 230 233 207 223 199 187 209 235 201 211 192 206 214 215 233 197 186 176 168 177 179 181 183 194 191 193 192 192 194 193 192 191 191 190 193 192 192 205 199 181 183
243 181 209 221 228 221 221 220 212 151 242 244 197 189 198 218 216 231 172 216 184 166 173 176 178 182 193 194 194 194 197 196 193 194 191 191 191 192 195 198 204 205 186 193
281 56 255 225 213 233 291 241 141 163 228 229 190 192 202 199 207 215 181 168 150 165 176 177 179 181 192 197 198 197 198 196 194 196 193 192 197 192 199 197 198 204 196 193
282 8 308 357 271 229 237 261 185 202 206 171 176 182 193 194 202 207 213 175 186 196 192 179 182 178 188 203 202 200 195 196 196 198 194 193 201 196 205 209 210 209 203 188
301 337 328 306 316 306 233 308 182 174 182 192 190 196 193 192 193 197 188 163 181 206 202 179 191 182 190 202 195 198 194 195 198 198 196 198 203 204 205 216 208 203 215 201
269 315 304 340 333 329 292 348 331 211 170 187 179 188 178 190 176 183 171 173 191 192 182 179 187 191 188 195 197 199 196 198 198 198 198 195 193 206 203 214 204 216 208 224